GORIZONT 2 (11440 NORAD) Tracking and Keplerian Element Data

This shows tracking and keplerian element data for the satellite.

Feedback or suggestion? Click here.




ElementValue
Catalog11440
NameGORIZONT 2
Epoch Orbit13302
Epoch Day34.69764851
Epoch Year2025
RAAN291.0189
Inclination6.9667
Eccentricity0.0005893
Argument of Perigee343.2569
Mean Anonmoly181.4787
Mean Motion1.00305449
Decay Rate-4.5E-07
L11 11440U 79062A 25034.69764851 -.00000045 00000+0 00000+0 0 9992
L22 11440 6.9667 291.0189 0005893 343.2569 181.4787 1.00305449133024



Live tracking and technical data element details for GORIZONT 2 (NORAD 11440). GORIZONT 2 can be tracked NOW for your location showing map with azimuth and elevation plus other details from your city location.







IsCatalogInMostPopularTable: catalog: 11440, numindb: 324
Update: records affected: 1



GetName: 11440 GORIZONT 2

Hit Count: updated at: Thu, 15 May 2025 10:03:33 GMT